[[{"header":{"parameterUnit":"m.s-1","parameterCategory":1,"la1":30.2991,"la2":30.254,"lo1":-89.0895,"lo2":-89.0444,"dy":0.0017,"dx":0.0017,"nx":28,"ny":28,"refTime":"2025-03-26T09:00:00:Z","depth":0,"parameterNumber":2,"parameterNumberName":"U-component_of_WINDS"},"data":[0,0,0,0,0,0,0,0,0,0,0,0,0,0,0,0,0,0,0,0,0,0,0,0,0,0,0,0,0,0,0,0,0,0,0,0,0,0,0,0,0,0,0,0,0,0,0,0,0,0,0,0,0,0,0,0,0,0,-3.5069,-3.5069,0,-3.5073,-3.5073,-3.5073,-3.5019,-3.5017,-3.5016,-3.5014,-3.502,-3.5022,-3.5023,0,0,0,0,0,0,0,0,0,0,0,0,0,-3.5019,-3.502,-3.5069,-3.5069,-3.5069,-3.5073,-3.5073,-3.5073,-3.5019,-3.5017,-3.5015,-3.5014,-3.502,-3.5022,-3.5024,0,0,0,0,0,0,0,0,0,0,0,0,0,-3.5034,-3.5021,-3.5069,-3.5043,-3.504,-3.5073,-3.5073,-3.5073,-3.5019,-3.5017,-3.5015,-3.5013,-3.5019,-3.5022,-3.5024,-3.5082,0,0,-3.5031,-3.5032,0,0,0,0,0,0,0,0,-3.5033,-3.5036,-3.5047,-3.5045,-3.5042,-3.5043,-3.5057,-3.5076,-3.502,-3.5027,-3.5014,-3.5012,-3.503,-3.5031,-3.5037,-3.5082,-3.5083,-3.5031,-3.5032,-3.5033,-3.5034,0,0,0,0,0,0,0,-3.5032,-3.5035,-3.5071,-3.5047,-3.5044,-3.5032,-3.5031,-3.5061,-3.5041,-3.5027,-3.5023,-3.5024,-3.5028,-3.5035,-3.5037,-3.5083,-3.5031,-3.5033,-3.5034,-3.5035,-3.5178,-3.518,0,0,0,0,0,0,-3.5034,-3.5035,-3.507,-3.5071,-3.5032,-3.5035,-3.5034,-3.5045,-3.5041,-3.5038,-3.5026,-3.5021,-3.5032,-3.5034,-3.5037,-3.5104,-3.5033,-3.5036,-3.5037,-3.5176,-3.5178,-3.5181,0,0,0,0,0,0,-3.5033,-3.5038,-3.507,-3.5052,-3.5055,-3.5038,-3.505,-3.5046,-3.5052,-3.504,-3.5036,-3.5035,-3.503,-3.5033,-3.5071,-3.5104,-3.5037,-3.5039,-3.5173,-3.5176,-3.518,-3.5241,0,0,0,0,0,0,-3.5032,-3.5038,-3.5059,-3.5052,-3.5056,-3.5104,-3.5052,-3.5048,-3.5056,-3.5051,-3.5048,-3.5046,-3.5029,-3.5068,-3.5074,-3.5106,-3.5041,-3.517,-3.5174,-3.5179,-3.5236,-3.5246,-3.5255,0,0,0,0,0,-3.503,-3.5076,-3.506,-3.5065,-3.5082,-3.5106,-3.5108,-3.5087,-3.5059,-3.5081,-3.5073,-3.5046,-3.51,-3.5073,-3.5078,-3.5112,-3.5167,-3.5173,-3.5178,-3.5232,-3.5244,-3.5255,0,0,0,0,0,0,-3.5087,-3.5075,-3.5057,-3.5102,-3.5105,-3.5097,-3.5123,-3.5101,-3.5113,-3.5107,-3.5081,-3.5081,-3.5124,-3.5122,-3.5091,-3.5169,-3.5129,-3.5136,-3.5168,-3.518,-3.5189,-3.5188,-3.5042,0,0,0,0,0,-3.5105,-3.5125,-3.5113,-3.5154,-3.5157,-3.514,-3.515,-3.5133,-3.5136,-3.5138,-3.5132,-3.5137,-3.5155,-3.5168,-3.5184,-3.5236,-3.5235,-3.5263,-3.5272,-3.528,-3.5286,-3.5314,-3.5326,-3.5199,-3.5199,-3.5199,0,0,-3.5142,-3.5137,-3.5151,-3.5165,-3.5166,-3.5188,-3.5141,-3.5166,-3.5183,-3.5142,-3.5176,-3.5174,-3.5177,-3.5223,-3.5243,-3.5223,-3.5321,-3.5287,-3.5293,-3.5295,-3.5321,-3.5333,-3.5344,-3.5203,-3.5202,-3.5201,0,0,-3.5219,-3.5218,-3.5252,-3.5254,-3.5256,-3.5245,-3.5253,-3.5249,-3.5245,-3.528,-3.5249,-3.527,-3.5301,-3.5305,-3.5311,-3.5393,-3.5369,-3.54,-3.5449,-3.5477,-3.5487,-3.5495,-3.5524,-3.5535,-3.5406,-3.5406,-3.5406,0,-3.5265,-3.5295,-3.5272,-3.53,-3.5307,-3.5271,-3.5306,-3.5309,-3.5317,-3.5323,-3.5301,-3.534,-3.534,-3.5387,-3.5407,-3.5414,-3.5423,-3.5398,-3.5487,-3.5496,-3.5503,-3.5531,-3.5542,-3.541,-3.5409,-3.5409,-3.5408,0,-3.5351,-3.5373,-3.5401,-3.5408,-3.5419,-3.545,-3.5433,-3.5447,-3.5431,-3.5422,-3.5459,-3.5459,-3.5474,-3.5484,-3.5469,-3.5529,-3.5517,-3.5491,-3.5451,-3.552,-3.5545,-3.5555,-3.5415,-3.5413,-3.5412,-3.5411,0,0,-3.5462,-3.5458,-3.5468,-3.5471,-3.5472,-3.5489,-3.552,-3.5534,-3.5547,-3.5554,-3.5579,-3.5608,-3.5585,-3.5592,-3.5577,-3.5602,-3.5667,-3.5573,-3.5573,-3.559,-3.5734,-3.5752,-3.5764,-3.5652,-3.5654,-3.5655,-3.5733,0,-3.5537,-3.5586,-3.5568,-3.5619,-3.564,-3.5608,-3.5634,-3.5638,-3.5632,-3.565,-3.5644,-3.5664,-3.5632,-3.5636,-3.566,-3.5654,-3.5695,-3.5648,-3.5675,-3.5676,-3.5673,-3.5777,-3.5796,-3.5869,-3.5743,-3.5744,-3.5746,0,-3.563,-3.564,-3.5694,-3.5692,-3.57,-3.5724,-3.5736,-3.5753,-3.5758,-3.5752,-3.5761,-3.5742,-3.5773,-3.5734,-3.5777,-3.5745,-3.5756,-3.5755,-3.5757,-3.5757,-3.5714,-3.5779,-3.5892,-3.5903,-3.5761,-3.576,-3.5759,0,-3.5704,-3.5732,-3.5768,-3.5772,-3.5771,-3.5788,-3.5789,-3.5791,-3.5802,-3.5814,-3.582,-3.5836,-3.5845,-3.5858,-3.5844,-3.5817,-3.5889,-3.5849,-3.5885,-3.5885,-3.59,-3.5899,-3.6015,-3.5909,-3.5909,-3.5909,-3.5909,0,-3.5789,-3.5823,-3.5801,-3.5823,-3.5861,-3.584,-3.5878,-3.5876,-3.5879,-3.59,-3.5874,-3.5895,-3.5876,-3.5896,-3.5885,-3.5922,-3.5927,-3.5923,-3.592,-3.5925,-3.5925,-3.593,-3.5924,-3.5912,-3.5911,-3.5911,-3.591,0,-3.5877,-3.5864,-3.5901,-3.5897,-3.5897,-3.5925,-3.5922,-3.5943,-3.5936,-3.5964,-3.5969,-3.5959,-3.5981,-3.5969,-3.5992,-3.5985,-3.6033,-3.6023,-3.6031,-3.6027,-3.6064,-3.606,-3.6186,-3.6201,-3.6087,-3.6088,-3.6089,0,-3.5931,-3.5956,-3.5955,-3.5967,-3.5969,-3.599,-3.6,-3.5982,-3.5995,-3.6003,-3.6023,-3.6043,-3.6058,-3.6095,-3.609,-3.6108,-3.6098,-3.6141,-3.6101,-3.6105,-3.6098,-3.6096,-3.6098,-3.6149,-3.615,-3.6151,-3.6152,0,-3.6028,-3.602,-3.6036,-3.605,-3.6063,-3.6074,-3.6082,-3.6094,-3.6077,-3.6092,-3.6114,-3.6126,-3.615,-3.617,-3.6186,-3.6188,-3.6167,-3.6165,-3.6174,-3.6178,-3.6181,-3.6179,-3.6051,-3.6162,-3.6161,-3.616,-3.6159,-3.6159,-3.6099,-3.6121,-3.6123,-3.6142,-3.6147,-3.6156,-3.6175,-3.6171,-3.6188,-3.6205,-3.6195,-3.6221,-3.6227,-3.6246,-3.6251,-3.6272,-3.6255,-3.6269,-3.6272,-3.6275,-3.628,-3.618,-3.6275,-3.6275,-3.6275,-3.6275,-3.6274,0,-3.6194,-3.6195,-3.6212,-3.6225,-3.624,-3.622,-3.6228,-3.6243,-3.6266,-3.6273,-3.6288,-3.6314,-3.6335,-3.6332,-3.6351,-3.6368,-3.636,-3.6374,-3.6371,-3.6372,-3.6294,-3.6284,-3.6381,-3.6381,-3.6381,-3.6381,-3.6381,-3.6381,-3.6245,-3.6279,-3.6273,-3.631,-3.6311,-3.6335,-3.6342,-3.6351,-3.6356,-3.6386,-3.6403,-3.6401,-3.6405,-3.6424,-3.6442,-3.6441,-3.6449,-3.6466,-3.6462,-3.6388,-3.6378,-3.6368,-3.6358,-3.6469,-3.6469,-3.6538,-3.6539,-3.6539]},{"header":{"parameterUnit":"m.s-1","parameterCategory":1,"la1":30.2991,"la2":30.254,"lo1":-89.0895,"lo2":-89.0444,"dy":0.0017,"dx":0.0017,"nx":28,"ny":28,"refTime":"2025-03-26T09:00:00:Z","depth":0,"parameterNumber":3,"parameterNumberName":"V-component_of_WINDS"},"data":[0,0,0,0,0,0,0,0,0,0,0,0,0,0,0,0,0,0,0,0,0,0,0,0,0,0,0,0,0,0,0,0,0,0,0,0,0,0,0,0,0,0,0,0,0,0,0,0,0,0,0,0,0,0,0,0,0,0,2.5828,2.5829,0,2.5863,2.5863,2.5864,2.593,2.5931,2.5932,2.5933,2.5963,2.5963,2.5962,0,0,0,0,0,0,0,0,0,0,0,0,0,2.5814,2.5814,2.5828,2.5829,2.5829,2.5863,2.5863,2.5864,2.5929,2.5931,2.5933,2.5934,2.5963,2.5963,2.5962,0,0,0,0,0,0,0,0,0,0,0,0,0,2.5831,2.5814,2.5828,2.5866,2.587,2.5863,2.5863,2.5864,2.5929,2.5931,2.5933,2.5935,2.5964,2.5963,2.5962,2.592,0,0,2.596,2.596,0,0,0,0,0,0,0,0,2.583,2.5832,2.586,2.5863,2.5868,2.5894,2.5869,2.5882,2.5929,2.5906,2.5933,2.5936,2.5938,2.594,2.5942,2.5921,2.5922,2.596,2.596,2.596,2.596,0,0,0,0,0,0,0,2.5829,2.583,2.5842,2.586,2.5865,2.588,2.5884,2.5872,2.5911,2.5908,2.5913,2.5917,2.5941,2.5942,2.5943,2.5923,2.596,2.596,2.5959,2.5959,2.5869,2.5867,0,0,0,0,0,0,2.5823,2.5829,2.5841,2.5843,2.5853,2.5878,2.5884,2.5883,2.5911,2.5917,2.5915,2.592,2.5942,2.5944,2.5944,2.5897,2.596,2.5959,2.5959,2.5871,2.5869,2.5867,0,0,0,0,0,0,2.5822,2.5823,2.5839,2.5837,2.5841,2.5877,2.5876,2.5883,2.5885,2.5916,2.5923,2.591,2.5944,2.5945,2.5926,2.5899,2.5959,2.5958,2.5874,2.5871,2.5868,2.5802,0,0,0,0,0,0,2.5821,2.5823,2.5808,2.5837,2.584,2.5821,2.5874,2.5882,2.5884,2.5891,2.5913,2.5919,2.5946,2.5927,2.5925,2.5899,2.5958,2.5876,2.5872,2.5869,2.5806,2.5797,2.5789,0,0,0,0,0,2.5821,2.5786,2.5807,2.5808,2.5823,2.582,2.5822,2.5855,2.5882,2.5867,2.5887,2.5918,2.5902,2.5924,2.5923,2.5897,2.5878,2.5874,2.5869,2.5811,2.5799,2.5789,0,0,0,0,0,0,2.5751,2.5791,2.5814,2.5788,2.58,2.5831,2.5813,2.5841,2.5845,2.585,2.589,2.5894,2.587,2.5881,2.5905,2.5857,2.5895,2.589,2.5851,2.584,2.5831,2.5829,2.5957,0,0,0,0,0,2.5733,2.5729,2.5763,2.5737,2.5742,2.5776,2.5776,2.5801,2.5814,2.5819,2.5838,2.5848,2.5846,2.5843,2.5843,2.5808,2.5814,2.579,2.5781,2.5773,2.5768,2.5752,2.5742,2.5852,2.5852,2.5852,0,0,2.5695,2.5716,2.5711,2.5723,2.5736,2.573,2.578,2.5771,2.5766,2.5817,2.5801,2.5815,2.5829,2.5803,2.5792,2.5811,2.5739,2.5767,2.5761,2.5761,2.5746,2.5736,2.5726,2.5849,2.5849,2.585,0,0,2.5623,2.5638,2.5619,2.5631,2.565,2.5674,2.5669,2.5695,2.5708,2.5692,2.5731,2.5725,2.5719,2.5729,2.5732,2.5665,2.5693,2.5663,2.5616,2.56,2.5591,2.5583,2.556,2.5551,2.5658,2.5658,2.5658,0,2.5573,2.5567,2.5605,2.5594,2.5599,2.5647,2.5627,2.5636,2.5653,2.5654,2.5676,2.5672,2.5684,2.5661,2.5645,2.5646,2.5641,2.5661,2.559,2.5582,2.5576,2.5554,2.5545,2.5654,2.5655,2.5655,2.5655,0,2.5505,2.55,2.5481,2.5499,2.5502,2.5486,2.552,2.5518,2.5542,2.5562,2.5546,2.5563,2.5568,2.5564,2.5586,2.5543,2.5555,2.5583,2.5622,2.5561,2.5541,2.5533,2.5649,2.565,2.5651,2.5652,0,0,2.5389,2.543,2.5423,2.5432,2.5457,2.5453,2.5439,2.5446,2.5443,2.5452,2.5442,2.5437,2.5463,2.5467,2.5491,2.5476,2.5423,2.5506,2.5507,2.5491,2.5377,2.5357,2.5346,2.5442,2.544,2.5439,2.5376,0,2.5324,2.5305,2.5339,2.5312,2.5308,2.5354,2.5342,2.5355,2.5373,2.5371,2.5391,2.5387,2.5422,2.5425,2.5412,2.5432,2.5401,2.5437,2.5431,2.5431,2.5428,2.5336,2.5314,2.5254,2.5368,2.5367,2.5366,0,2.5244,2.5253,2.5226,2.5254,2.5253,2.5242,2.5251,2.5249,2.5265,2.5279,2.5284,2.5314,2.5301,2.5339,2.5321,2.5345,2.5345,2.5354,2.5353,2.5354,2.5395,2.5335,2.5235,2.5226,2.5354,2.5355,2.5356,0,2.5164,2.5169,2.5154,2.516,2.5192,2.5183,2.5195,2.5213,2.5215,2.5222,2.5224,2.5228,2.523,2.5233,2.5262,2.5287,2.5241,2.5281,2.5252,2.5252,2.5241,2.5241,2.514,2.5239,2.524,2.524,2.524,0,2.5088,2.5069,2.5119,2.5109,2.509,2.5129,2.5108,2.5125,2.514,2.5134,2.5172,2.5165,2.5204,2.5201,2.5223,2.5206,2.5206,2.5217,2.5224,2.5214,2.5213,2.5215,2.522,2.5237,2.5238,2.5238,2.5239,0,2.4995,2.5028,2.5014,2.5046,2.5054,2.5038,2.5065,2.5057,2.5078,2.507,2.507,2.5102,2.5101,2.513,2.5133,2.5149,2.5121,2.5134,2.5116,2.5121,2.5091,2.5094,2.4988,2.4977,2.5082,2.5081,2.508,0,2.4945,2.4932,2.4964,2.4963,2.4975,2.4973,2.4976,2.5013,2.5014,2.5032,2.5021,2.5023,2.5027,2.5021,2.5044,2.5047,2.5061,2.5024,2.5062,2.5053,2.5061,2.5062,2.5061,2.5016,2.5015,2.5014,2.5013,0,2.4852,2.4869,2.4873,2.4882,2.4885,2.4893,2.4904,2.4901,2.4942,2.4941,2.4941,2.4944,2.4948,2.4949,2.4957,2.4968,2.4996,2.5001,2.4995,2.4985,2.4976,2.4981,2.5096,2.5003,2.5004,2.5005,2.5005,2.5006,2.478,2.4771,2.4792,2.4795,2.4808,2.4817,2.4812,2.4834,2.4835,2.4843,2.4864,2.486,2.4876,2.489,2.4898,2.4895,2.4913,2.4903,2.4901,2.4899,2.4893,2.4976,2.4896,2.4896,2.4897,2.4897,2.4897,0,2.469,2.4706,2.4708,2.4724,2.4726,2.4755,2.4768,2.4768,2.4765,2.4778,2.4782,2.4781,2.4783,2.4806,2.481,2.4803,2.4817,2.4803,2.4804,2.4806,2.4877,2.4882,2.4792,2.4792,2.4792,2.4792,2.4792,2.4792,2.4643,2.4631,2.465,2.4644,2.466,2.4659,2.4664,2.4672,2.4684,2.4683,2.4685,2.4701,2.4718,2.4724,2.4726,2.4733,2.4733,2.4715,2.4726,2.4791,2.4801,2.4811,2.4817,2.4714,2.4714,2.4656,2.4656,2.4655]}]]